Time,TemperatureF,DewpointF,PressureIn,WindDirection,WindDirectionDegrees,WindSpeedMPH,WindSpeedGustMPH,Humidity,HourlyPrecipIn,Conditions,Clouds,dailyrainin,SoftwareType,DateUTC
2013-07-04 00:00:00,75.6,71.8,30.11,North,-999,0.0,0.0,88,0.00,,,-99.99,WeatherLink 5.7,2013-07-04 04:00:00,
2013-07-04 00:05:00,75.4,71.6,30.11,North,-999,0.0,0.0,88,0.00,,,-99.99,WeatherLink 5.7,2013-07-04 04:05:00,
2013-07-04 00:10:00,75.3,71.5,30.11,SSE,157,0.0,1.0,88,0.00,,,-99.99,WeatherLink 5.7,2013-07-04 04:10:00,
2013-07-04 00:15:00,75.1,71.6,30.11,SSW,202,0.0,3.0,89,0.00,,,-99.99,WeatherLink 5.7,2013-07-04 04:15:00,
2013-07-04 00:20:00,75.1,71.6,30.11,SE,135,0.0,1.0,89,0.00,,,-99.99,WeatherLink 5.7,2013-07-04 04:20:00,
2013-07-04 00:30:00,74.9,71.4,30.12,North,-999,0.0,0.0,89,0.00,,,-99.99,WeatherLink 5.7,2013-07-04 04:30:00,
2013-07-04 00:40:00,74.7,71.2,30.12,North,-999,0.0,0.0,89,0.00,,,-99.99,WeatherLink 5.7,2013-07-04 04:40:00,
2013-07-04 00:45:00,74.6,71.5,30.11,North,-999,0.0,0.0,90,0.00,,,-99.99,WeatherLink 5.7,2013-07-04 04:45:00,
2013-07-04 00:50:00,74.6,71.5,30.11,North,-999,0.0,0.0,90,0.00,,,-99.99,WeatherLink 5.7,2013-07-04 04:50:00,
2013-07-04 01:00:00,74.2,71.1,30.12,North,-999,0.0,0.0,90,0.00,,,-99.99,WeatherLink 5.7,2013-07-04 05:00:00,
2013-07-04 01:05:00,74.2,71.1,30.12,North,-999,0.0,0.0,90,0.00,,,-99.99,WeatherLink 5.7,2013-07-04 05:05:00,
2013-07-04 01:15:00,73.9,71.1,30.12,North,-999,0.0,0.0,91,0.00,,,-99.99,WeatherLink 5.7,2013-07-04 05:15:00,
2013-07-04 01:25:00,73.9,71.1,30.12,North,-999,0.0,0.0,91,0.00,,,-99.99,WeatherLink 5.7,2013-07-04 05:25:00,
2013-07-04 01:35:00,73.5,71.0,30.11,North,-999,0.0,0.0,92,0.00,,,-99.99,WeatherLink 5.7,2013-07-04 05:35:00,
2013-07-04 01:45:00,73.3,70.8,30.11,South,180,0.0,2.0,92,0.00,,,-99.99,WeatherLink 5.7,2013-07-04 05:45:00,
2013-07-04 01:55:00,73.2,70.7,30.11,North,-999,0.0,0.0,92,0.00,,,-99.99,WeatherLink 5.7,2013-07-04 05:55:00,
2013-07-04 02:05:00,73.2,71.1,30.11,North,-999,0.0,0.0,93,0.00,,,-99.99,WeatherLink 5.7,2013-07-04 06:05:00,
2013-07-04 02:10:00,73.2,71.1,30.11,South,180,0.0,1.0,93,0.00,,,-99.99,WeatherLink 5.7,2013-07-04 06:10:00,
2013-07-04 02:20:00,73.0,70.9,30.11,WSW,247,0.0,1.0,93,0.00,,,-99.99,WeatherLink 5.7,2013-07-04 06:20:00,
2013-07-04 02:25:00,73.0,70.9,30.11,North,-999,0.0,0.0,93,0.00,,,-99.99,WeatherLink 5.7,2013-07-04 06:25:00,
2013-07-04 02:35:00,72.8,70.7,30.11,West,270,0.0,2.0,93,0.00,,,-99.99,WeatherLink 5.7,2013-07-04 06:35:00,
2013-07-04 02:45:00,72.8,71.0,30.11,West,270,0.0,1.0,94,0.00,,,-99.99,WeatherLink 5.7,2013-07-04 06:45:00,
2013-07-04 02:55:00,72.5,70.7,30.11,North,-999,0.0,0.0,94,0.00,,,-99.99,WeatherLink 5.7,2013-07-04 06:55:00,
2013-07-04 03:05:00,72.5,70.7,30.10,North,-999,0.0,0.0,94,0.00,,,-99.99,WeatherLink 5.7,2013-07-04 07:05:00,
2013-07-04 03:10:00,72.5,70.7,30.10,NW,315,0.0,1.0,94,0.00,,,-99.99,WeatherLink 5.7,2013-07-04 07:10:00,
2013-07-04 03:20:00,72.3,70.5,30.11,NW,315,0.0,1.0,94,0.00,,,-99.99,WeatherLink 5.7,2013-07-04 07:20:00,
2013-07-04 03:25:00,72.3,70.5,30.11,NW,315,0.0,2.0,94,0.00,,,-99.99,WeatherLink 5.7,2013-07-04 07:25:00,
2013-07-04 03:30:00,72.3,70.5,30.10,West,270,0.0,2.0,94,0.00,,,-99.99,WeatherLink 5.7,2013-07-04 07:30:00,
2013-07-04 03:40:00,72.0,70.2,30.10,North,-999,0.0,0.0,94,0.00,,,-99.99,WeatherLink 5.7,2013-07-04 07:40:00,
2013-07-04 03:50:00,71.8,70.3,30.10,North,-999,0.0,0.0,95,0.00,,,-99.99,WeatherLink 5.7,2013-07-04 07:50:00,
2013-07-04 04:00:00,71.8,70.3,30.10,North,-999,0.0,0.0,95,0.00,,,-99.99,WeatherLink 5.7,2013-07-04 08:00:00,
2013-07-04 04:05:00,71.8,70.3,30.10,West,270,0.0,1.0,95,0.00,,,-99.99,WeatherLink 5.7,2013-07-04 08:05:00,
2013-07-04 04:15:00,71.6,70.1,30.10,North,-999,0.0,0.0,95,0.00,,,-99.99,WeatherLink 5.7,2013-07-04 08:15:00,
2013-07-04 04:25:00,71.5,70.3,30.10,North,-999,0.0,0.0,96,0.00,,,-99.99,WeatherLink 5.7,2013-07-04 08:25:00,
2013-07-04 04:35:00,71.3,70.1,30.11,North,-999,0.0,0.0,96,0.00,,,-99.99,WeatherLink 5.7,2013-07-04 08:35:00,
2013-07-04 04:45:00,71.1,69.9,30.11,North,-999,0.0,0.0,96,0.00,,,-99.99,WeatherLink 5.7,2013-07-04 08:45:00,
2013-07-04 04:55:00,71.1,69.9,30.11,North,-999,0.0,0.0,96,0.00,,,-99.99,WeatherLink 5.7,2013-07-04 08:55:00,
2013-07-04 05:00:00,71.1,69.9,30.12,North,-999,0.0,0.0,96,0.00,,,-99.99,WeatherLink 5.7,2013-07-04 09:00:00,
2013-07-04 05:10:00,71.1,69.9,30.12,NE,45,0.0,1.0,96,0.00,,,-99.99,WeatherLink 5.7,2013-07-04 09:10:00,
2013-07-04 05:20:00,71.1,69.9,30.11,NE,45,0.0,1.0,96,0.00,,,-99.99,WeatherLink 5.7,2013-07-04 09:20:00,
2013-07-04 05:30:00,71.1,69.9,30.12,North,-999,0.0,0.0,96,0.00,,,-99.99,WeatherLink 5.7,2013-07-04 09:30:00,
2013-07-04 05:35:00,71.1,69.9,30.12,NE,45,0.0,1.0,96,0.00,,,-99.99,WeatherLink 5.7,2013-07-04 09:35:00,
2013-07-04 05:45:00,71.1,69.9,30.12,North,-999,0.0,0.0,96,0.00,,,-99.99,WeatherLink 5.7,2013-07-04 09:45:00,
2013-07-04 05:55:00,71.1,69.9,30.12,North,-999,0.0,0.0,96,0.00,,,-99.99,WeatherLink 5.7,2013-07-04 09:55:00,
2013-07-04 06:05:00,71.5,70.6,30.12,North,-999,0.0,0.0,97,0.00,,,-99.99,WeatherLink 5.7,2013-07-04 10:05:00,
2013-07-04 06:10:00,71.5,70.6,30.12,North,-999,0.0,0.0,97,0.00,,,-99.99,WeatherLink 5.7,2013-07-04 10:10:00,
2013-07-04 06:20:00,71.6,70.7,30.12,North,-999,0.0,0.0,97,0.00,,,-99.99,WeatherLink 5.7,2013-07-04 10:20:00,
2013-07-04 06:30:00,72.0,71.1,30.13,North,-999,0.0,0.0,97,0.00,,,-99.99,WeatherLink 5.7,2013-07-04 10:30:00,
2013-07-04 06:40:00,72.3,71.4,30.13,North,-999,0.0,0.0,97,0.00,,,-99.99,WeatherLink 5.7,2013-07-04 10:40:00,
2013-07-04 06:50:00,72.5,71.6,30.13,North,-999,0.0,0.0,97,0.00,,,-99.99,WeatherLink 5.7,2013-07-04 10:50:00,
2013-07-04 07:00:00,72.8,71.9,30.13,North,-999,0.0,0.0,97,0.00,,,-99.99,WeatherLink 5.7,2013-07-04 11:00:00,
2013-07-04 07:10:00,73.2,72.3,30.13,North,-999,0.0,0.0,97,0.00,,,-99.99,WeatherLink 5.7,2013-07-04 11:10:00,
2013-07-04 07:20:00,73.5,72.3,30.14,SE,135,0.0,2.0,96,0.00,,,-99.99,WeatherLink 5.7,2013-07-04 11:20:00,
2013-07-04 07:30:00,73.9,72.7,30.14,West,270,0.0,1.0,96,0.00,,,-99.99,WeatherLink 5.7,2013-07-04 11:30:00,
2013-07-04 07:40:00,74.2,73.0,30.14,SW,225,0.0,5.0,96,0.00,,,-99.99,WeatherLink 5.7,2013-07-04 11:40:00,
2013-07-04 07:45:00,74.4,72.9,30.14,North,-999,0.0,0.0,95,0.00,,,-99.99,WeatherLink 5.7,2013-07-04 11:45:00,
2013-07-04 07:55:00,75.1,72.9,30.14,SSW,202,0.0,1.0,93,0.00,,,-99.99,WeatherLink 5.7,2013-07-04 11:55:00,
2013-07-04 08:00:00,75.4,72.9,30.14,SSW,202,0.0,2.0,92,0.00,,,-99.99,WeatherLink 5.7,2013-07-04 12:00:00,
2013-07-04 08:10:00,76.0,72.5,30.14,North,0,0.0,2.0,89,0.00,,,-99.99,WeatherLink 5.7,2013-07-04 12:10:00,
2013-07-04 08:15:00,76.3,72.8,30.14,North,0,0.0,2.0,89,0.00,,,-99.99,WeatherLink 5.7,2013-07-04 12:15:00,
2013-07-04 08:20:00,76.7,72.2,30.14,SSW,202,0.0,3.0,86,0.00,,,-99.99,WeatherLink 5.7,2013-07-04 12:20:00,
2013-07-04 08:30:00,77.2,72.3,30.14,NW,315,0.0,3.0,85,0.00,,,-99.99,WeatherLink 5.7,2013-07-04 12:30:00,
2013-07-04 08:35:00,77.6,72.0,30.14,NE,45,0.0,2.0,83,0.00,,,-99.99,WeatherLink 5.7,2013-07-04 12:35:00,
2013-07-04 08:45:00,78.3,72.7,30.14,South,180,0.0,1.0,83,0.00,,,-99.99,WeatherLink 5.7,2013-07-04 12:45:00,
2013-07-04 08:55:00,79.8,72.7,30.14,NW,315,0.0,2.0,79,0.00,,,-99.99,WeatherLink 5.7,2013-07-04 12:55:00,
2013-07-04 09:05:00,81.6,72.1,30.14,NNW,337,0.0,2.0,73,0.00,,,-99.99,WeatherLink 5.7,2013-07-04 13:05:00,
2013-07-04 09:15:00,83.2,72.8,30.14,SSW,202,1.0,3.0,71,0.00,,,-99.99,WeatherLink 5.7,2013-07-04 13:15:00,
2013-07-04 09:20:00,83.8,73.0,30.14,SW,225,0.0,3.0,70,0.00,,,-99.99,WeatherLink 5.7,2013-07-04 13:20:00,
2013-07-04 09:30:00,85.3,72.6,30.14,ENE,67,0.0,2.0,66,0.00,,,-99.99,WeatherLink 5.7,2013-07-04 13:30:00,
2013-07-04 09:40:00,87.0,72.9,30.14,SSW,202,1.0,2.0,63,0.00,,,-99.99,WeatherLink 5.7,2013-07-04 13:40:00,
2013-07-04 09:50:00,87.6,73.0,30.13,North,0,2.0,7.0,62,0.00,,,-99.99,WeatherLink 5.7,2013-07-04 13:50:00,
2013-07-04 10:00:00,88.4,72.7,30.12,North,0,1.0,3.0,60,0.00,,,-99.99,WeatherLink 5.7,2013-07-04 14:00:00,
2013-07-04 10:10:00,89.5,72.8,30.12,WNW,292,1.0,3.0,58,0.00,,,-99.99,WeatherLink 5.7,2013-07-04 14:10:00,
2013-07-04 10:15:00,90.1,72.8,30.12,ESE,112,1.0,3.0,57,0.00,,,-99.99,WeatherLink 5.7,2013-07-04 14:15:00,
2013-07-04 10:25:00,89.9,73.7,30.12,SW,225,1.0,5.0,59,0.00,,,-99.99,WeatherLink 5.7,2013-07-04 14:25:00,
2013-07-04 10:35:00,90.5,72.7,30.12,SW,225,1.0,3.0,56,0.00,,,-99.99,WeatherLink 5.7,2013-07-04 14:35:00,
2013-07-04 10:45:00,90.7,72.8,30.11,SSW,202,1.0,5.0,56,0.00,,,-99.99,WeatherLink 5.7,2013-07-04 14:45:00,
2013-07-04 10:55:00,91.0,74.2,30.11,SSW,202,1.0,4.0,58,0.00,,,-99.99,WeatherLink 5.7,2013-07-04 14:55:00,
2013-07-04 11:05:00,91.8,73.3,30.11,WSW,247,1.0,4.0,55,0.00,,,-99.99,WeatherLink 5.7,2013-07-04 15:05:00,
2013-07-04 11:10:00,91.4,74.0,30.11,SE,135,2.0,7.0,57,0.00,,,-99.99,WeatherLink 5.7,2013-07-04 15:10:00,
2013-07-04 11:20:00,92.7,74.2,30.11,SSW,202,1.0,4.0,55,0.00,,,-99.99,WeatherLink 5.7,2013-07-04 15:20:00,
2013-07-04 11:30:00,93.4,73.7,30.11,South,180,1.0,3.0,53,0.00,,,-99.99,WeatherLink 5.7,2013-07-04 15:30:00,
2013-07-04 11:40:00,92.3,73.8,30.11,WSW,247,1.0,4.0,55,0.00,,,-99.99,WeatherLink 5.7,2013-07-04 15:40:00,
2013-07-04 11:45:00,92.7,74.2,30.11,WNW,292,1.0,3.0,55,0.00,,,-99.99,WeatherLink 5.7,2013-07-04 15:45:00,
2013-07-04 11:55:00,94.3,73.4,30.11,West,270,2.0,7.0,51,0.00,,,-99.99,WeatherLink 5.7,2013-07-04 15:55:00,
2013-07-04 12:05:00,94.5,74.7,30.10,North,0,1.0,3.0,53,0.00,,,-99.99,WeatherLink 5.7,2013-07-04 16:05:00,
2013-07-04 12:10:00,94.7,74.3,30.10,NW,315,1.0,4.0,52,0.00,,,-99.99,WeatherLink 5.7,2013-07-04 16:10:00,
2013-07-04 12:20:00,95.4,72.6,30.10,West,270,2.0,6.0,48,0.00,,,-99.99,WeatherLink 5.7,2013-07-04 16:20:00,
2013-07-04 12:30:00,94.5,73.0,30.09,SSW,202,2.0,7.0,50,0.00,,,-99.99,WeatherLink 5.7,2013-07-04 16:30:00,
2013-07-04 12:40:00,94.3,72.8,30.09,NNW,337,1.0,6.0,50,0.00,,,-99.99,WeatherLink 5.7,2013-07-04 16:40:00,
2013-07-04 12:50:00,94.9,72.1,30.09,NNW,337,1.0,5.0,48,0.00,,,-99.99,WeatherLink 5.7,2013-07-04 16:50:00,
2013-07-04 12:55:00,95.4,73.8,30.09,SW,225,1.0,3.0,50,0.00,,,-99.99,WeatherLink 5.7,2013-07-04 16:55:00,
2013-07-04 13:05:00,94.5,74.2,30.08,South,180,1.0,2.0,52,0.00,,,-99.99,WeatherLink 5.7,2013-07-04 17:05:00,
2013-07-04 13:15:00,94.7,75.5,30.08,SW,225,1.0,2.0,54,0.00,,,-99.99,WeatherLink 5.7,2013-07-04 17:15:00,
2013-07-04 13:25:00,94.5,73.0,30.08,SE,135,1.0,5.0,50,0.00,,,-99.99,WeatherLink 5.7,2013-07-04 17:25:00,
2013-07-04 13:30:00,94.0,73.7,30.08,SSW,202,2.0,5.0,52,0.00,,,-99.99,WeatherLink 5.7,2013-07-04 17:30:00,
2013-07-04 13:40:00,94.3,74.0,30.08,WSW,247,1.0,3.0,52,0.00,,,-99.99,WeatherLink 5.7,2013-07-04 17:40:00,
2013-07-04 13:45:00,94.3,71.6,30.07,West,270,2.0,5.0,48,0.00,,,-99.99,WeatherLink 5.7,2013-07-04 17:45:00,
2013-07-04 13:55:00,94.9,71.5,30.07,West,270,1.0,5.0,47,0.00,,,-99.99,WeatherLink 5.7,2013-07-04 17:55:00,
2013-07-04 14:05:00,95.1,71.1,30.07,WNW,292,1.0,3.0,46,0.00,,,-99.99,WeatherLink 5.7,2013-07-04 18:05:00,
2013-07-04 14:15:00,94.9,72.8,30.06,West,270,1.0,3.0,49,0.00,,,-99.99,WeatherLink 5.7,2013-07-04 18:15:00,
2013-07-04 14:20:00,94.5,71.8,30.06,WSW,247,2.0,5.0,48,0.00,,,-99.99,WeatherLink 5.7,2013-07-04 18:20:00,
2013-07-04 14:30:00,94.3,72.2,30.06,NNE,22,1.0,3.0,49,0.00,,,-99.99,WeatherLink 5.7,2013-07-04 18:30:00,
2013-07-04 14:35:00,94.3,72.2,30.06,SW,225,2.0,4.0,49,0.00,,,-99.99,WeatherLink 5.7,2013-07-04 18:35:00,
2013-07-04 14:45:00,94.0,73.7,30.06,SE,135,1.0,3.0,52,0.00,,,-99.99,WeatherLink 5.7,2013-07-04 18:45:00,
2013-07-04 14:55:00,93.4,72.6,30.06,SSE,157,1.0,3.0,51,0.00,,,-99.99,WeatherLink 5.7,2013-07-04 18:55:00,
2013-07-04 15:05:00,93.8,74.1,30.05,SSE,157,1.0,5.0,53,0.00,,,-99.99,WeatherLink 5.7,2013-07-04 19:05:00,
2013-07-04 15:15:00,93.4,73.1,30.05,ESE,112,2.0,5.0,52,0.00,,,-99.99,WeatherLink 5.7,2013-07-04 19:15:00,
2013-07-04 15:25:00,93.2,73.0,30.05,WSW,247,3.0,8.0,52,0.00,,,-99.99,WeatherLink 5.7,2013-07-04 19:25:00,
2013-07-04 15:30:00,92.9,73.8,30.05,West,270,2.0,7.0,54,0.00,,,-99.99,WeatherLink 5.7,2013-07-04 19:30:00,
2013-07-04 15:35:00,92.7,72.5,30.05,South,180,2.0,4.0,52,0.00,,,-99.99,WeatherLink 5.7,2013-07-04 19:35:00,
2013-07-04 15:45:00,92.7,74.2,30.05,WNW,292,1.0,3.0,55,0.00,,,-99.99,WeatherLink 5.7,2013-07-04 19:45:00,
2013-07-04 15:55:00,93.4,73.1,30.05,North,0,2.0,5.0,52,0.00,,,-99.99,WeatherLink 5.7,2013-07-04 19:55:00,
2013-07-04 16:05:00,92.9,72.7,30.04,ENE,67,1.0,4.0,52,0.00,,,-99.99,WeatherLink 5.7,2013-07-04 20:05:00,
2013-07-04 16:15:00,92.7,72.5,30.04,SW,225,2.0,5.0,52,0.00,,,-99.99,WeatherLink 5.7,2013-07-04 20:15:00,
2013-07-04 16:20:00,92.9,72.1,30.04,SE,135,2.0,5.0,51,0.00,,,-99.99,WeatherLink 5.7,2013-07-04 20:20:00,
2013-07-04 16:25:00,92.7,74.2,30.04,South,180,0.0,2.0,55,0.00,,,-99.99,WeatherLink 5.7,2013-07-04 20:25:00,
2013-07-04 16:35:00,92.5,73.4,30.04,ENE,67,1.0,2.0,54,0.00,,,-99.99,WeatherLink 5.7,2013-07-04 20:35:00,
2013-07-04 16:45:00,92.3,73.8,30.03,South,180,1.0,5.0,55,0.00,,,-99.99,WeatherLink 5.7,2013-07-04 20:45:00,
2013-07-04 16:55:00,92.1,73.1,30.03,WSW,247,2.0,8.0,54,0.00,,,-99.99,WeatherLink 5.7,2013-07-04 20:55:00,
2013-07-04 17:05:00,91.2,72.2,30.03,SSW,202,2.0,7.0,54,0.00,,,-99.99,WeatherLink 5.7,2013-07-04 21:05:00,
2013-07-04 17:15:00,91.0,73.7,30.03,North,0,1.0,3.0,57,0.00,,,-99.99,WeatherLink 5.7,2013-07-04 21:15:00,
2013-07-04 17:25:00,90.7,72.3,30.03,SW,225,2.0,5.0,55,0.00,,,-99.99,WeatherLink 5.7,2013-07-04 21:25:00,
2013-07-04 17:35:00,90.3,73.0,30.03,SE,135,1.0,4.0,57,0.00,,,-99.99,WeatherLink 5.7,2013-07-04 21:35:00,
2013-07-04 17:45:00,90.1,72.8,30.03,WSW,247,2.0,5.0,57,0.00,,,-99.99,WeatherLink 5.7,2013-07-04 21:45:00,
2013-07-04 17:50:00,89.7,71.9,30.03,WSW,247,2.0,5.0,56,0.00,,,-99.99,WeatherLink 5.7,2013-07-04 21:50:00,
2013-07-04 18:00:00,89.0,72.3,30.03,SW,225,1.0,6.0,58,0.00,,,-99.99,WeatherLink 5.7,2013-07-04 22:00:00,
2013-07-04 18:10:00,88.6,72.9,30.03,North,0,1.0,4.0,60,0.00,,,-99.99,WeatherLink 5.7,2013-07-04 22:10:00,
2013-07-04 18:20:00,88.2,72.6,30.03,NE,45,1.0,3.0,60,0.00,,,-99.99,WeatherLink 5.7,2013-07-04 22:20:00,
2013-07-04 18:30:00,88.0,72.4,30.02,WSW,247,1.0,5.0,60,0.00,,,-99.99,WeatherLink 5.7,2013-07-04 22:30:00,
2013-07-04 18:35:00,87.8,73.2,30.02,WNW,292,1.0,6.0,62,0.00,,,-99.99,WeatherLink 5.7,2013-07-04 22:35:00,
2013-07-04 18:45:00,87.4,71.8,30.02,WSW,247,0.0,2.0,60,0.00,,,-99.99,WeatherLink 5.7,2013-07-04 22:45:00,
2013-07-04 18:55:00,87.0,71.9,30.02,West,270,1.0,5.0,61,0.00,,,-99.99,WeatherLink 5.7,2013-07-04 22:55:00,
2013-07-04 19:05:00,86.7,72.6,30.03,North,0,0.0,3.0,63,0.00,,,-99.99,WeatherLink 5.7,2013-07-04 23:05:00,
2013-07-04 19:10:00,86.5,72.4,30.03,WSW,247,1.0,5.0,63,0.00,,,-99.99,WeatherLink 5.7,2013-07-04 23:10:00,
2013-07-04 19:15:00,86.3,73.1,30.03,East,90,0.0,2.0,65,0.00,,,-99.99,WeatherLink 5.7,2013-07-04 23:15:00,
2013-07-04 19:25:00,85.9,72.8,30.03,WSW,247,1.0,5.0,65,0.00,,,-99.99,WeatherLink 5.7,2013-07-04 23:25:00,
2013-07-04 19:35:00,85.7,72.6,30.03,SSE,157,0.0,1.0,65,0.00,,,-99.99,WeatherLink 5.7,2013-07-04 23:35:00,
2013-07-04 19:45:00,85.3,73.1,30.03,SSE,157,0.0,1.0,67,0.00,,,-99.99,WeatherLink 5.7,2013-07-04 23:45:00,
2013-07-04 19:50:00,85.1,72.9,30.03,SSE,157,0.0,2.0,67,0.00,,,-99.99,WeatherLink 5.7,2013-07-04 23:50:00,
2013-07-04 20:00:00,84.7,73.0,30.03,SW,225,0.0,3.0,68,0.00,,,-99.99,WeatherLink 5.7,2013-07-05 00:00:00,
2013-07-04 20:10:00,84.3,73.0,30.03,North,-999,0.0,0.0,69,0.00,,,-99.99,WeatherLink 5.7,2013-07-05 00:10:00,
2013-07-04 20:20:00,84.0,72.7,30.04,SSE,157,0.0,3.0,69,0.00,,,-99.99,WeatherLink 5.7,2013-07-05 00:20:00,
2013-07-04 20:30:00,83.6,72.3,30.04,SSW,202,1.0,7.0,69,0.00,,,-99.99,WeatherLink 5.7,2013-07-05 00:30:00,
2013-07-04 20:40:00,83.2,72.8,30.04,SE,135,0.0,1.0,71,0.00,,,-99.99,WeatherLink 5.7,2013-07-05 00:40:00,
2013-07-04 20:45:00,83.0,72.6,30.04,SE,135,0.0,2.0,71,0.00,,,-99.99,WeatherLink 5.7,2013-07-05 00:45:00,
2013-07-04 20:55:00,82.6,72.2,30.04,ESE,112,0.0,2.0,71,0.00,,,-99.99,WeatherLink 5.7,2013-07-05 00:55:00,
2013-07-04 21:05:00,82.4,72.0,30.05,SE,135,0.0,2.0,71,0.00,,,-99.99,WeatherLink 5.7,2013-07-05 01:05:00,
2013-07-04 21:15:00,81.8,71.9,30.05,North,-999,0.0,0.0,72,0.00,,,-99.99,WeatherLink 5.7,2013-07-05 01:15:00,
2013-07-04 21:25:00,81.4,71.9,30.05,SE,135,0.0,1.0,73,0.00,,,-99.99,WeatherLink 5.7,2013-07-05 01:25:00,
2013-07-04 21:30:00,81.4,71.9,30.05,SE,135,0.0,3.0,73,0.00,,,-99.99,WeatherLink 5.7,2013-07-05 01:30:00,
2013-07-04 21:40:00,81.1,71.6,30.05,East,90,0.0,2.0,73,0.00,,,-99.99,WeatherLink 5.7,2013-07-05 01:40:00,
2013-07-04 21:50:00,80.9,71.4,30.05,West,270,0.0,2.0,73,0.00,,,-99.99,WeatherLink 5.7,2013-07-05 01:50:00,
2013-07-04 22:00:00,80.7,71.6,30.05,ESE,112,0.0,1.0,74,0.00,,,-99.99,WeatherLink 5.7,2013-07-05 02:00:00,
2013-07-04 22:10:00,80.7,72.0,30.05,South,180,1.0,5.0,75,0.00,,,-99.99,WeatherLink 5.7,2013-07-05 02:10:00,
2013-07-04 22:20:00,80.5,72.2,30.05,SE,135,0.0,2.0,76,0.00,,,-99.99,WeatherLink 5.7,2013-07-05 02:20:00,
2013-07-04 22:25:00,80.5,72.6,30.05,South,180,0.0,3.0,77,0.00,,,-99.99,WeatherLink 5.7,2013-07-05 02:25:00,
2013-07-04 22:35:00,80.3,72.8,30.05,East,90,0.0,2.0,78,0.00,,,-99.99,WeatherLink 5.7,2013-07-05 02:35:00,
2013-07-04 22:45:00,80.1,73.0,30.05,North,-999,0.0,0.0,79,0.00,,,-99.99,WeatherLink 5.7,2013-07-05 02:45:00,
2013-07-04 22:55:00,79.8,73.1,30.05,SSW,202,0.0,3.0,80,0.00,,,-99.99,WeatherLink 5.7,2013-07-05 02:55:00,
2013-07-04 23:05:00,79.6,73.3,30.05,SSW,202,0.0,2.0,81,0.00,,,-99.99,WeatherLink 5.7,2013-07-05 03:05:00,
2013-07-04 23:15:00,79.6,73.3,30.05,ESE,112,0.0,3.0,81,0.00,,,-99.99,WeatherLink 5.7,2013-07-05 03:15:00,
2013-07-04 23:20:00,79.4,73.4,30.05,SSW,202,0.0,3.0,82,0.00,,,-99.99,WeatherLink 5.7,2013-07-05 03:20:00,
2013-07-04 23:30:00,79.0,73.0,30.05,WSW,247,1.0,3.0,82,0.00,,,-99.99,WeatherLink 5.7,2013-07-05 03:30:00,
2013-07-04 23:40:00,78.8,73.2,30.05,North,0,0.0,2.0,83,0.00,,,-99.99,WeatherLink 5.7,2013-07-05 03:40:00,
2013-07-04 23:50:00,78.8,72.8,30.05,NNW,337,1.0,3.0,82,0.00,,,-99.99,WeatherLink 5.7,2013-07-05 03:50:00,